Simultaneous Nadir Overpasses (SNOs) Predictions

Prediction of SNOs between GOES-16 and AQUA Satellite Orbit:

Table of predicted SNOs for the next 14.0 days since TLE Epoch: 10/2/2021
Index Date Time (GOES-16) GOES-16 Lat,Lon AQUA Lat,Lon Distance(km) Time Diff (sec)
1 10/02/2021 18:35:23 0.10, -75.20 0.20, -74.65 61.87 80
2 10/04/2021 18:20:32 0.10, -75.21 0.84, -71.70 398.80 80
3 10/05/2021 06:44:28 -0.09, -75.20 0.24, -76.86 188.00 80
4 10/07/2021 06:29:36 -0.10, -75.21 -0.35, -73.89 149.66 80
5 10/07/2021 18:53:40 0.09, -75.22 -0.75, -79.08 439.34 80
6 10/09/2021 06:17:25 -0.10, -75.23 -1.01, -70.94 487.49 80
7 10/09/2021 18:41:29 0.09, -75.24 -0.09, -76.13 101.37 80
8 10/11/2021 18:26:37 0.09, -75.25 0.53, -73.17 236.71 80
9 10/12/2021 06:50:33 -0.08, -75.25 0.56, -78.33 349.53 80
10 10/14/2021 06:38:21 -0.09, -75.27 -0.06, -75.37 11.02 80
